Regional Weather Roundup
Issued by NWS

Home | Current Version | Previous Version | Text Only | Print | Product List | Glossary Off
Versions: 1 2 3 4 5 6 7 8 9 10 11 12 13 14 15 16 17 18 19 20 21 22 23 24 25 26 27 28 29 30 31 32 33 34 35 36 37 38 39 40 41 42 43 44 45 46 47 48 49 50

946
ASUS43 KOAX 190310
RWRNE

WEATHER ROUNDUP FOR NEBRASKA
NATIONAL WEATHER SERVICE OMAHA NE
900 PM CST SAT NOV 18 2017

NOTES: SATELLITE DATA IS BEING USED TO AUGMENT CLOUD COVER ABOVE
       12000 FEET.
       "FAIR" INDICATES FEW OR NO CLOUDS BELOW 12,000 FEET WITH NO
       SIGNIFICANT WEATHER AND/OR OBSTRUCTIONS TO VISIBILITY.


NEZ001>004-019>022-054>056-190400-
NEBRASKA PANHANDLE

CITY           SKY/WX    TMP DP  RH WIND       PRES   REMARKS
SCOTTSBLUFF    CLEAR     29  16  58 CALM      30.22S
ALLIANCE       CLEAR     17  12  80 W9        30.21R WCI   6
CHADRON        CLOUDY    25  18  74 SW9       30.20S WCI  15
GORDON         FAIR      28  18  67 W5        30.18R WCI  23
KIMBALL        CLEAR     24  14  64 NW7       30.22F WCI  16
SIDNEY         CLEAR     27  17  66 NW8       30.24R WCI  19
$$

NEZ057>060-069>072-079>082-190400-
SOUTHWEST NEBRASKA

CITY           SKY/WX    TMP DP  RH WIND       PRES   REMARKS
NORTH PLATTE   CLEAR     26  19  74 W6        30.22S WCI  19
IMPERIAL       CLEAR     30  15  53 W8        30.25R WCI  22
LEXINGTON      CLEAR     28  23  79 CALM      30.22S
MCCOOK         CLEAR     31  22  69 W8        30.25R WCI  23
OGALLALA       CLEAR     28  19  69 CALM      30.24R
$$

NEZ005>010-023>029-035>040-094-190400-
NORTH CENTRAL NEBRASKA

CITY           SKY/WX    TMP DP  RH WIND       PRES   REMARKS
VALENTINE      PTCLDY    30  22  72 NW6       30.17R WCI  24
AINSWORTH      CLEAR     29  23  79 W7        30.17S WCI  22
BROKEN BOW     CLEAR     30  21  69 CALM      30.19S
O`NEILL        CLEAR     25  22  87 SW5       30.17S WCI  19
ORD            CLEAR     28  23  81 W6        30.18S WCI  22
THEDFORD       CLEAR     31  22  69 W8        30.20R WCI  23
$$

NEZ041-046>049-061>064-073>077-083>087-190400-
SOUTH CENTRAL NEBRASKA

CITY           SKY/WX    TMP DP  RH WIND       PRES   REMARKS
GRAND ISLAND   CLEAR     32  26  78 W7        30.21R WCI  26
AURORA         CLEAR     29  24  81 NW8       30.20S WCI  21
HASTINGS       CLEAR     28  21  75 W7        30.22R WCI  21
HEBRON         CLEAR     32  26  76 W3        30.23R
HOLDREGE       CLEAR     33  23  66 W6        30.23R WCI  28
KEARNEY        CLEAR     28  23  81 N10       30.23R WCI  19
YORK           CLEAR     30  28  93 CALM      30.21R
$$

NEZ011>018-030>034-042>045-190400-
NORTHEAST NEBRASKA

CITY           SKY/WX    TMP DP  RH WIND       PRES   REMARKS
NORFOLK        CLEAR     27  21  78 W7        30.16S WCI  19
ALBION         CLEAR     29  24  82 CALM      30.19S
BLAIR          CLEAR     31  23  72 NW5       30.17R WCI  27
COLUMBUS       CLEAR     29  23  78 NW6       30.20S WCI  23
FREMONT        CLEAR     29  23  79 W5        30.19S WCI  23
TEKAMAH        CLEAR     25  19  78 W3        30.18S
WAYNE          CLEAR     29  21  74 W6        30.17S WCI  22
$$

NEZ050>053-065>068-078-088>093-190400-
SOUTHEAST NEBRASKA

CITY           SKY/WX    TMP DP  RH WIND       PRES   REMARKS
LINCOLN        CLEAR     32  24  72 N3        30.22R
OMAHA EPPLEY   CLEAR     33  20  58 NW9       30.18R WCI  25
BEATRICE       CLEAR     29  25  86 NW5       30.21R WCI  24
FALLS CITY     CLEAR     36  26  67 NW8       30.18R WCI  30
NEBRASKA CITY  CLEAR     35  27  71 N12       30.19R WCI  27
PLATTSMOUTH    CLEAR     33  26  75 NW9       30.19R WCI  25
$$

NEZ044-045-051>053-067-190400-
OMAHA AREA

CITY           SKY/WX    TMP DP  RH WIND       PRES   REMARKS
OMAHA EPPLEY   CLEAR     33  20  58 NW9       30.18R WCI  25
BLAIR          CLEAR     31  23  72 NW5       30.17R WCI  27
FREMONT        CLEAR     29  23  79 W5        30.19S WCI  23
MILLARD        CLEAR     35  25  66 NW8       30.19S WCI  28
OFFUTT AFB     CLEAR     33  22  64 NW7       30.18R WCI  26
PLATTSMOUTH    CLEAR     33  26  75 NW9       30.19R WCI  25
WAHOO          FAIR      32  25  76 NW6       30.20R WCI  26
$$




USA.gov is the U.S. government's official web portal to all federal, state and local government web resources and services.